Regional Weather Roundup
Issued by NWS

Home | Current Version | Previous Version | Text Only | Print | Product List | Glossary Off
Versions: 1 2 3 4 5 6 7 8 9 10 11 12 13 14 15 16 17 18 19 20 21 22 23 24 25 26 27 28 29 30 31 32 33 34 35 36 37 38 39 40 41 42 43 44 45 46 47 48 49 50

497
ASUS43 KIND 240809
RWRIN

WEATHER ROUNDUP FOR INDIANA
NATIONAL WEATHER SERVICE INDIANAPOLIS IN
300 AM EST SAT FEB 24 2018

NOTE: "FAIR" INDICATES FEW OR NO CLOUDS BELOW 12,000 FEET WITH NO
SIGNIFICANT WEATHER AND/OR OBSTRUCTIONS TO VISIBILITY.

* - STATION DOES NOT REPORT WEATHER SUCH AS PRECIPITATION OR FOG.

+ - STATION NOT QUALITY CONTROLLED BY THE NATIONAL WEATHER SERVICE.
    USE DATA WITH CAUTION...ESPECIALLY DEWPOINT AND RELATIVE
    HUMIDITY OBSERVATIONS.

INZ001>003-010>013-019-020-240900-
NORTHWEST INDIANA

CITY           SKY/WX    TMP DP  RH WIND       PRES   REMARKS
GARY /AIRPORT/ CLOUDY    36  32  85 N7        30.24S WCI  30
LA PORTE +     CLOUDY    36  32  87 NE7       30.23R WCI  30
MICHIGAN CITY+ FAIR      34  32  93 NE3       30.24S
MONTICELLO +   DRIZZLE   37  34  92 NE5       30.23R WCI  33
RENSSELAER +   CLOUDY    36  32  87 CALM      30.23S
VALPARAISO     CLOUDY    38  33  82 NE7       30.22F WCI  33

$$

LMZ046-743>745-240900-
SOUTHERN LAKE MICHIGAN

STATION/POSITION TIME  TEMP    WIND        PRES    WAVE
                       AIR SEA DIR/SP/G            HT
                 (UTC) (F)     (DEG/KT/KT) (MB)    (FT)
BURNS HARBOR     0802   34      20/  9/ 13 1024.0
MICHIGAN CITY    0740   34      10/ 11/ 12   N/A

$$

INZ004-005-014>016-021>024-240900-
NORTH CENTRAL INDIANA

CITY           SKY/WX    TMP DP  RH WIND       PRES   REMARKS
GOSHEN         CLOUDY    37  32  82 N8        30.23F WCI  31
LOGANSPORT +   CLOUDY    36  34  93 N6        30.23S WCI  31
PERU/GRISSOM   CLOUDY    37  37 100 NE5       30.21F WCI  34
ROCHESTER +    CLOUDY    37  36  93 NE6       30.22F WCI  33
SOUTH BEND     CLOUDY    35  30  82 N8        30.23F WCI  29
WARSAW +       CLOUDY    36  32  87 E6        30.22F WCI  31

$$

INZ006>009-017-018-025>027-240900-
NORTHEAST INDIANA

CITY           SKY/WX    TMP DP  RH WIND       PRES   REMARKS
AUBURN +       CLOUDY    36  34  93 N6        30.23S WCI  31
FORT WAYNE     LGT RAIN  40  38  93 NE6       30.23S FOG     WCI  36
HUNTINGTON +   DRIZZLE   38  37  96 NE7       30.22F WCI  33
KENDALLVILLE + CLOUDY    35  34  94 NE5       30.22F WCI  31

$$

INZ028-029-035-036-043>045-051>053-240900-
WEST CENTRAL INDIANA

CITY           SKY/WX    TMP DP  RH WIND       PRES   REMARKS
CRAWFORDSVL +  LGT SNOW  36  36 100 N8          N/A  WCI  30
GREENCASTLE +  LGT RAIN  41  39  93 N3        30.22R
LAFAYETTE      MIX PCPN  37  35  92 NE3       30.23S
TERRE HAUTE    LGT RAIN  42  41  96 N5        30.20S

$$

INZ030>032-037>040-046>048-054>057-064-065-240900-
CENTRAL INDIANA

CITY           SKY/WX    TMP DP  RH WIND       PRES   REMARKS
FISHERS *+     CLOUDY    39  39 100 NE5       30.20F WCI  36
GREENWOOD *+   CLOUDY    42 -47   2 NE9       30.18F
INDIANAPOLIS   LGT RAIN  43  41  93 NE8       30.19F
-EAGLE CREEK   LGT RAIN  43  40  89 N7        30.20F
KOKOMO +       LGT RAIN  39  38  96 NE3       30.22F FOG
MARION +       LGT RAIN  38  38  97 CALM      30.22F
MT COMFORT *+  CLOUDY    41  41 100 NE9       30.19F
SHELBYVILLE    CLOUDY    45  42  89 NE8       30.17F
ZIONSVILLE +   RAIN      38  38 100 N10       30.20F WCI  31

$$

INZ033-034-041-042-049-050-058-059-240900-
EAST CENTRAL INDIANA

CITY           SKY/WX    TMP DP  RH WIND       PRES   REMARKS
MUNCIE         LGT RAIN  43  40  89 NE8       30.21F FOG
RICHMOND +     CLOUDY    43  43 100 NE6       30.17F FOG

$$

INZ060-061-067>069-081>083-085>088-240900-
SOUTHWEST INDIANA

CITY           SKY/WX    TMP DP  RH WIND       PRES   REMARKS
EVANSVILLE     CLOUDY    49  48  97 N6        30.16F
HUNTINGBURG +  CLOUDY    49  48  97 N6        30.16F FOG
WASHINGTON +   LGT RAIN  46  44  93 N10       30.17F

$$

INZ062-063-066-070>080-084-089>092-240900-
SOUTH CENTRAL AND SOUTHEAST INDIANA

CITY           SKY/WX    TMP DP  RH WIND       PRES   REMARKS
BATESVILLE +   CLOUDY    46  46 100 MISG      30.17F FOG
BEDFORD +      CLOUDY    48  45  87 NW3       30.19R
BLOOMINGTON    LGT RAIN  45  43  93 N6        30.18S
FRENCH LICK *+ CLOUDY    46 N/A N/A N5        30.15F
MADISON *+     CLOUDY    50  48  93 N5        30.16F
NORTH VERNON + LGT RAIN  46  45  93 NE5       30.18F
SEYMOUR +      LGT RAIN  48  48 100 N7        30.17S

$$





USA.gov is the U.S. government's official web portal to all federal, state and local government web resources and services.